• In Austria
  • List of Countries
  • For 7 days
  • Water Temperature
  • Satellite Maps
  • Weather Map
  • News
  • Weather Widgets
  • user-avatar
    Login

    Hourly Weather Korçe

    Today, 19 July, Thursday

    Time Temperature Precipitation Wind Pressure Humidity
    00:00 +14°C° 0 mm 1 mps 665 mmHg 82%
    01:00 +14°C° 0 mm 1 mps 665 mmHg 82%
    02:00 +14°C° 0 mm 1 mps 665 mmHg 82%
    03:00 +14°C° 0 mm 1 mps 665 mmHg 82%
    04:00 +14°C° 0 mm 1 mps 664 mmHg 81%
    05:00 +16°C° 0 mm 1 mps 665 mmHg 74%
    06:00 +17°C° 0 mm 2 mps 665 mmHg 67%
    07:00 +19°C° 0 mm 2 mps 666 mmHg 59%
    08:00 +21°C° 0 mm 3 mps 666 mmHg 54%
    09:00 +22°C° 0 mm 3 mps 667 mmHg 49%
    10:00 +25°C° 0 mm 4 mps 667 mmHg 44%
    11:00 +25°C° 0 mm 4 mps 667 mmHg 44%
    12:00 +26°C° 0 mm 4 mps 667 mmHg 43%
    13:00 +26°C° 0 mm 5 mps 667 mmHg 43%
    14:00 +26°C° 0 mm 5 mps 667 mmHg 44%
    15:00 +25°C° 0 mm 4 mps 667 mmHg 46%
    16:00 +25°C° 0 mm 4 mps 667 mmHg 48%
    17:00 +22°C° 0 mm 3 mps 666 mmHg 55%
    18:00 +20°C° 0 mm 3 mps 666 mmHg 62%
    19:00 +18°C° 0 mm 2 mps 665 mmHg 70%
    20:00 +17°C° 0 mm 2 mps 665 mmHg 72%
    21:00 +16°C° 0 mm 2 mps 666 mmHg 75%
    22:00 +15°C° 0 mm 1 mps 666 mmHg 77%
    23:00 +15°C° 0 mm 1 mps 666 mmHg 78%

    Tomorrow, 20 July, Friday

    Time Temperature Precipitation Wind Pressure Humidity
    00:00 +15°C° 0 mm 1 mps 665 mmHg 79%
    01:00 +15°C° 0 mm 1 mps 665 mmHg 80%
    02:00 +15°C° 0 mm 1 mps 665 mmHg 81%
    03:00 +15°C° 0 mm 1 mps 665 mmHg 82%
    04:00 +14°C° 0 mm 1 mps 665 mmHg 83%
    05:00 +16°C° 0 mm 1 mps 665 mmHg 77%
    06:00 +19°C° 0 mm 1 mps 666 mmHg 72%
    07:00 +20°C° 0 mm 1 mps 667 mmHg 66%
    08:00 +22°C° 0 mm 1 mps 667 mmHg 61%
    09:00 +23°C° 0 mm 2 mps 667 mmHg 56%
    10:00 +25°C° 0 mm 2 mps 668 mmHg 50%
    11:00 +25°C° 0.1 mm 2 mps 668 mmHg 50%
    12:00 +26°C° 0.1 mm 2 mps 668 mmHg 49%
    13:00 +26°C° 0.1 mm 2 mps 668 mmHg 48%
    14:00 +26°C° 0.1 mm 3 mps 667 mmHg 51%
    15:00 +25°C° 0.1 mm 3 mps 667 mmHg 53%
    16:00 +25°C° 0.1 mm 3 mps 667 mmHg 55%
    17:00 +24°C° 0 mm 2 mps 667 mmHg 61%
    18:00 +21°C° 0 mm 2 mps 667 mmHg 66%
    19:00 +19°C° 0 mm 2 mps 666 mmHg 72%
    20:00 +19°C° 0 mm 2 mps 667 mmHg 75%
    21:00 +19°C° 0 mm 1 mps 667 mmHg 77%
    22:00 +18°C° 0 mm 1 mps 667 mmHg 80%
    23:00 +18°C° 0 mm 1 mps 667 mmHg 80%

    Day after tomorrow, 21 July, Saturday

    Time Temperature Precipitation Wind Pressure Humidity
    00:00 +16°C° 0 mm 1 mps 667 mmHg 81%
    01:00 +16°C° 0 mm 1 mps 667 mmHg 82%
    02:00 +16°C° 0 mm 1 mps 666 mmHg 82%
    03:00 +16°C° 0 mm 1 mps 666 mmHg 82%
    04:00 +16°C° 0 mm 1 mps 666 mmHg 83%
    05:00 +18°C° 0 mm 1 mps 667 mmHg 77%
    06:00 +20°C° 0 mm 1 mps 667 mmHg 71%
    07:00 +22°C° 0 mm 1 mps 668 mmHg 65%
    08:00 +23°C° 0 mm 1 mps 668 mmHg 58%
    09:00 +25°C° 0 mm 1 mps 669 mmHg 50%
    10:00 +27°C° 0 mm 2 mps 669 mmHg 42%
    11:00 +27°C° 0 mm 2 mps 669 mmHg 40%
    12:00 +28°C° 0 mm 3 mps 669 mmHg 38%
    13:00 +29°C° 0 mm 3 mps 669 mmHg 35%
    14:00 +28°C° 0 mm 3 mps 669 mmHg 36%
    15:00 +28°C° 0 mm 3 mps 669 mmHg 37%
    16:00 +28°C° 0 mm 3 mps 668 mmHg 37%
    17:00 +26°C° 0 mm 3 mps 668 mmHg 43%
    18:00 +23°C° 0 mm 2 mps 667 mmHg 50%
    19:00 +21°C° 0 mm 1 mps 667 mmHg 56%
    20:00 +20°C° 0 mm 1 mps 667 mmHg 56%
    21:00 +19°C° 0 mm 1 mps 667 mmHg 56%
    22:00 +19°C° 0 mm 1 mps 667 mmHg 57%
    23:00 +18°C° 0 mm 1 mps 667 mmHg 55%

    22 July, Sunday

    Time Temperature Precipitation Wind Pressure Humidity
    00:00 +18°C° 0 mm 1 mps 667 mmHg 54%
    01:00 +18°C° 0 mm 1 mps 666 mmHg 52%
    02:00 +18°C° 0 mm 1 mps 666 mmHg 51%
    03:00 +18°C° 0 mm 1 mps 666 mmHg 51%
    04:00 +18°C° 0 mm 1 mps 666 mmHg 50%
    05:00 +20°C° 0 mm 1 mps 667 mmHg 49%
    06:00 +22°C° 0 mm 1 mps 667 mmHg 48%
    07:00 +24°C° 0 mm 1 mps 667 mmHg 47%
    08:00 +26°C° 0 mm 2 mps 668 mmHg 42%
    09:00 +28°C° 0 mm 2 mps 668 mmHg 38%
    10:00 +29°C° 0 mm 2 mps 668 mmHg 33%
    11:00 +30°C° 0 mm 3 mps 668 mmHg 32%
    12:00 +30°C° 0 mm 3 mps 668 mmHg 31%
    13:00 +32°C° 0 mm 4 mps 667 mmHg 31%
    14:00 +30°C° 0 mm 4 mps 667 mmHg 33%
    15:00 +30°C° 0 mm 4 mps 667 mmHg 35%
    16:00 +29°C° 0 mm 4 mps 666 mmHg 37%
    17:00 +27°C° 0 mm 4 mps 666 mmHg 45%
    18:00 +25°C° 0 mm 3 mps 665 mmHg 52%
    19:00 +21°C° 0 mm 3 mps 664 mmHg 59%
    20:00 +20°C° 0 mm 3 mps 664 mmHg 61%
    21:00 +20°C° 0 mm 3 mps 664 mmHg 63%
    22:00 +19°C° 0 mm 3 mps 664 mmHg 64%
    23:00 +18°C° 0 mm 2 mps 663 mmHg 64%

    23 July, Monday

    Time Temperature Precipitation Wind Pressure Humidity
    00:00 +18°C° 0 mm 2 mps 663 mmHg 64%
    01:00 +17°C° 0 mm 2 mps 663 mmHg 64%
    02:00 +18°C° 0.2 mm 1 mps 663 mmHg 68%
    03:00 +16°C° 0.2 mm 1 mps 662 mmHg 71%
    04:00 +16°C° 0.2 mm 1 mps 662 mmHg 75%
    05:00 +18°C° 0.2 mm 1 mps 663 mmHg 73%
    06:00 +19°C° 0.2 mm 1 mps 663 mmHg 72%
    07:00 +19°C° 0.2 mm 2 mps 663 mmHg 70%
    08:00 +20°C° 0.2 mm 2 mps 663 mmHg 64%
    09:00 +21°C° 0.2 mm 2 mps 663 mmHg 58%
    10:00 +23°C° 0.2 mm 2 mps 663 mmHg 52%
    11:00 +23°C° 0 mm 2 mps 663 mmHg 51%
    12:00 +23°C° 0 mm 2 mps 663 mmHg 51%
    13:00 +23°C° 0 mm 2 mps 662 mmHg 51%
    14:00 +23°C° 0.1 mm 2 mps 662 mmHg 52%
    15:00 +23°C° 0.1 mm 2 mps 662 mmHg 53%
    16:00 +23°C° 0.1 mm 2 mps 662 mmHg 54%
    17:00 +20°C° 0.1 mm 2 mps 662 mmHg 60%
    18:00 +19°C° 0.1 mm 2 mps 662 mmHg 66%
    19:00 +18°C° 0.1 mm 2 mps 661 mmHg 72%
    20:00 +18°C° 0 mm 1 mps 661 mmHg 75%
    21:00 +16°C° 0 mm 1 mps 661 mmHg 79%
    22:00 +15°C° 0 mm 1 mps 661 mmHg 82%
    23:00 +15°C° 0 mm 1 mps 661 mmHg 82%

    24 July, Tuesday

    Time Temperature Precipitation Wind Pressure Humidity
    00:00 +15°C° 0 mm 1 mps 661 mmHg 82%
    01:00 +15°C° 0 mm 1 mps 661 mmHg 82%
    02:00 +15°C° 0 mm 2 mps 661 mmHg 82%
    03:00 +14°C° 0 mm 2 mps 661 mmHg 82%
    04:00 +14°C° 0 mm 2 mps 661 mmHg 82%
    05:00 +16°C° 0 mm 2 mps 661 mmHg 77%
    06:00 +17°C° 0 mm 2 mps 662 mmHg 72%
    07:00 +19°C° 0 mm 2 mps 662 mmHg 66%
    08:00 +21°C° 0.2 mm 2 mps 663 mmHg 60%
    09:00 +23°C° 0.2 mm 2 mps 663 mmHg 54%
    10:00 +25°C° 0.2 mm 2 mps 664 mmHg 48%
    11:00 +25°C° 0.6 mm 2 mps 664 mmHg 48%
    12:00 +26°C° 0.6 mm 2 mps 664 mmHg 48%
    13:00 +26°C° 0.6 mm 3 mps 664 mmHg 48%
    14:00 +26°C° 0.7 mm 3 mps 664 mmHg 49%
    15:00 +26°C° 0.7 mm 2 mps 664 mmHg 50%
    16:00 +25°C° 0.7 mm 2 mps 664 mmHg 51%
    17:00 +24°C° 0.4 mm 2 mps 664 mmHg 57%
    18:00 +21°C° 0.4 mm 2 mps 663 mmHg 62%
    19:00 +20°C° 0.4 mm 1 mps 663 mmHg 68%
    20:00 +20°C° 0.1 mm 1 mps 663 mmHg 69%
    21:00 +19°C° 0.1 mm 1 mps 664 mmHg 71%
    22:00 +17°C° 0.1 mm 2 mps 664 mmHg 72%
    23:00 +17°C° 0 mm 2 mps 664 mmHg 73%
    Show more